This demonstration page uses our WeatherBlox Daily Observations layout. Learn more.

Left ArrowRight Arrow

Hourly Observations for May 31, 2018

Temp ( °F °C ) Dew Point ( °F °C ) Humidity (%) Winds ( mph kmh ) Pressure ( in mb ) Visibility ( mi km ) Precip ( " mm )
12:56 am 00:56 Clear 70 21.1 60 15.6 71 71 W 7 11 29.68 1005 10 16 0.00 0.00
1:56 am 01:56 Clear 70 21.1 59 15 68 68 WSW 5 7 29.66 1004 10 16 0.00 0.00
2:56 am 02:56 Clear 62 16.7 58 14.4 86 86 NNE 7 11 29.68 1005 10 16 0.00 0.00
3:56 am 03:56 Clear 63 17.2 59 15 87 87 SSW 6 9 29.69 1006 10 16 0.00 0.00
4:56 am 04:56 Clear 65 18.3 59 15 81 81 SSW 3 6 29.70 1006 10 16 0.00 0.00
5:56 am 05:56 Clear 63 17.2 59 15 87 87 WSW 5 7 29.71 1006 10 16 0.00 0.00
6:56 am 06:56 Mostly Cloudy 63 17.2 59 15 87 87 W 3 6 29.73 1007 10 16 0.00 0.00
7:56 am 07:56 Sunny 67 19.4 59 15 76 76 SW 10 17 29.75 1008 9 14 0.00 0.00
8:56 am 08:56 Sunny 73 22.8 60 15.6 64 64 SW 13 20 29.76 1008 10 16 0.00 0.00
9:56 am 09:56 Mostly Sunny 76 24.4 59 15 56 56 WSW 10 17 29.77 1008 10 16 0.00 0.00
10:56 am 10:56 Mostly Sunny 79 26.1 60 15.6 52 52 SW 13 20 29.77 1008 7 11 0.00 0.00
12:56 pm 12:56 Sunny 83 28.3 60 15.6 46 46 W 15 24 29.77 1008 7 11 0.00 0.00
1:56 pm 13:56 Sunny 84 28.9 61 16.1 46 46 SW 14 22 29.77 1008 10 16 0.00 0.00
2:46 pm 14:46 Mostly Sunny 86 30 57 14 38 38 WSW 12 19 29.68 1005 10 16 0.00 0.00
2:56 pm 14:56 Mostly Sunny 86 30 59 15 40 40 SW 9 15 29.77 1008 9 14 0.00 0.00
3:56 pm 15:56 Hazy 87 30.6 58 14.4 37 37 VRB 5 7 29.76 1008 4 6 0.00 0.00
4:46 pm 16:46 Mostly Sunny 88 31 57 14 35 35 Calm 29.65 1004 10 16 0.00 0.00
4:56 pm 16:56 Mostly Sunny 88 31.1 58 14.4 36 36 SW 10 17 29.74 1007 10 16 0.00 0.00
5:56 pm 17:56 Partly Cloudy 88 31.1 57 13.9 35 35 WNW 6 9 29.74 1007 10 16 0.00 0.00
6:56 pm 18:56 Sunny 87 30.6 58 14.4 37 37 S 7 11 29.74 1007 10 16 0.00 0.00
7:47 pm 19:47 Mostly Sunny 86 30 59 15 40 40 S 6 9 29.65 1004 10 16 0.00 0.00
7:56 pm 19:56 Sunny 85 29.4 59 15 42 42 SSE 6 9 29.74 1007 10 16 0.00 0.00
8:56 pm 20:56 Sunny 80 26.7 63 17.2 56 56 SSE 9 15 29.75 1008 10 16 0.00 0.03
9:56 pm 21:56 Clear 76 24.4 63 17.2 64 64 S 9 15 29.77 1008 10 16 0.00 0.00
10:56 pm 22:56 Clear 73 22.8 62 16.7 69 69 S 9 15 29.78 1008 10 16 0.00 0.00
11:56 pm 23:56 Clear 74 23.3 61 16.1 64 64 S 12 19 29.78 1008 10 16 0.00 0.00

Powered by AerisWeather